www.pogodaiklimat.ru

Погода и климат >> Архив погоды >> Канада >> Нунавут >> Кеймбридж-Бей


ПОГОДА в Кеймбридж-Бее

  • Прогноз погоды в Кеймбридж-Бее
  • Монитор погоды в Кеймбридж-Бее

АРХИВ ПОГОДЫ в Кеймбридж-Бее

Время (UTC), дата Ветер
(напр.,м/с)
 
Видим.   Явления Облачность Т
(С)
Тd
(С)
f
(%)
Тe
(С)
Тes
(С)
Комфортность P
(гПа)
Po
(гПа)
Тmin
(С)
Tmax
(С)
R
(мм)
R24
(мм)
S
(см)
18 14.05 В 6 н/о н/о -2.3 -5.7 77 -9 -9 1025.4 1022.9 -3.5 -2.3
21 14.05 СВ 6 н/о н/о -2.0 -4.2 85 -9 -9 1026.4 1023.9
00 15.05 СВ 6 н/о н/о -2.2 -3.5 91 -9 -9 1027.0 1024.5 -3.5 -1.7
03 15.05 СВ 7 н/о н/о -2.7 -4.5 87 -10 -10 1027.1 1024.6
06 15.05 СВ 5 н/о н/о -3.1 -4.6 89 -10 -10 1027.4 1024.9 -3.5 -1.7 14
09 15.05 С 6 н/о н/о -2.8 -4.1 91 -10 -10 1027.7 1025.2
12 15.05 С 6 н/о н/о -2.8 -3.2 97 -10 -10 1028.6 1026.1 -3.5 -1.7 8
15 15.05 С 6 н/о н/о -1.8 -2.6 94 -9 -9 1029.3 1026.8
18 15.05 С 7 н/о н/о -0.9 -2.8 87 -8 -8 1029.2 1026.7 -3.5 -0.9
21 15.05 С 6 н/о н/о -0.7 -2.7 86 -7 -7 1029.3 1026.8
00 16.05 С 6 н/о н/о -1.3 -4.2 81 -8 -8 1029.6 1027.1 -3.1 -0.4
03 16.05 СВ 9 н/о н/о -5.2 -6.5 91 -14 -14 1029.3 1026.8
06 16.05 С 5 н/о н/о -10.5 -11.6 92 -19 -19 1029.3 1026.8 -10.5 -0.4 4
09 16.05 С 7 н/о н/о -10.8 -11.9 92 -20 -20 1029.5 1027.0
12 16.05 С 5 н/о н/о -12.2 -13.7 89 -20 -20 1029.9 1027.4 -12.7 -0.4 8
15 16.05 С 4 н/о н/о -10.3 -12.4 85 -17 -17 1030.3 1027.8
18 16.05 С 4 н/о н/о -7.0 -8.4 90 -13 -13 1030.4 1027.9 -12.7 -6.9
21 16.05 СВ 4 н/о н/о -4.0 -6.3 84 -10 -10 1029.8 1027.3
00 17.05 С 3 н/о н/о -3.4 -5.3 87 -8 -8 1029.9 1027.4 -12.7 -3.4
03 17.05 СВ 4 н/о н/о -5.3 -6.2 93 -12 -12 1029.7 1027.2
06 17.05 СВ 4 н/о н/о -6.0 -6.9 93 -13 -13 1029.9 1027.4 -12.7 -3.3
09 17.05 СВ 3 н/о н/о -9.4 -10.3 93 -15 -15 1030.6 1028.1
12 17.05 В 3 н/о н/о -9.8 -10.9 92 -15 -15 1031.2 1028.7 -10.1 -3.3 8
15 17.05 В 2 н/о н/о -9.1 -10.3 91 -14 -14 1031.3 1028.8
18 17.05 ЮВ 3 н/о н/о -8.6 -10.0 90 -15 -15 1031.2 1028.7 -10.1 -6.0
21 17.05 ЮВ 3 н/о н/о -7.8 -9.1 90 -14 -14 1031.1 1028.6
00 18.05 ЮВ 4 н/о н/о -7.8 -9.0 91 -15 -15 1031.2 1028.7 -10.1 -7.5
03 18.05 ЮВ 5 н/о н/о -8.0 -8.9 93 -15 -15 1031.0 1028.5
06 18.05 ЮВ 5 н/о н/о -9.1 -10.2 92 -17 -17 1030.9 1028.4 -10.1 -6.0
09 18.05 ЮВ 5 н/о н/о -9.5 -10.6 92 -17 -17 1031.1 1028.6
12 18.05 ЮВ 5 н/о н/о -9.4 -10.6 91 -17 -17 1030.9 1028.4 -10.1 -6.0 8
15 18.05 ЮВ 5 н/о н/о -8.6 -9.8 91 -16 -16 1030.4 1027.9
18 18.05 ЮВ 7 н/о н/о -7.2 -8.5 90 -16 -16 1030.2 1027.7 -10.1 -7.1
21 18.05 ЮВ 7 н/о н/о -6.3 -7.6 90 -15 -15 1030.2 1027.7
00 19.05 ЮВ 7 н/о н/о -6.0 -7.2 91 -14 -14 1029.4 1026.9 -10.1 -5.9
03 19.05 ЮВ 8 н/о н/о -6.8 -7.8 93 -16 -16 1028.2 1025.7
06 19.05 В 6 н/о н/о -8.0 -9.0 92 -16 -16 1027.7 1025.2 -10.1 -5.9 3
09 19.05 ЮВ 6 н/о н/о -8.9 -10.0 92 -17 -17 1027.8 1025.3
12 19.05 В 7 н/о н/о -7.8 -9.2 90 -17 -17 1026.6 1024.1 -9.4 -5.9 8
15 19.05 В 5 н/о н/о -7.3 -9.4 85 -15 -15 1026.3 1023.8
18 19.05 ЮВ 7 н/о н/о -5.2 -7.1 86 -13 -13 1025.6 1023.1 -9.4 -5.1
21 19.05 ЮВ 6 н/о н/о -3.5 -5.3 87 -11 -11 1025.0 1022.5
00 20.05 В 6 н/о н/о -2.4 -4.0 89 -10 -10 1023.9 1021.4 -9.4 -2.3
03 20.05 В 6 н/о н/о -3.1 -4.1 93 -10 -10 1023.4 1020.9
06 20.05 В 7 н/о н/о -4.5 -5.4 93 -13 -13 1023.7 1021.2 -9.4 -2.1 14
09 20.05 СВ 9 н/о н/о -6.9 -7.9 93 -17 -17 1023.6 1021.1
12 20.05 СВ 8 н/о н/о -9.7 -11.3 88 -20 -20 1024.4 1021.9 -9.8 -2.1 8
15 20.05 СВ 10 н/о н/о -8.6 -10.7 85 -19 -19 1024.8 1022.3
18 20.05 СВ 10 н/о н/о -7.6 -9.9 84 -18 -18 1025.3 1022.8 -9.8 -4.4
21 20.05 СВ 9 н/о н/о -9.2 -11.6 83 -19 -19 1026.8 1024.3
00 21.05 СВ 8 н/о н/о -10.6 -13.2 81 -21 -21 1028.1 1025.6 -10.8 -6.9
03 21.05 СВ 7 н/о н/о -11.0 -13.2 84 -20 -20 1028.7 1026.2
06 21.05 н/о н/о -11.3 -13.3 85 1029.6 1027.1 -11.4 -4.4 14
09 21.05 СЗ 4 н/о н/о -16.1 -18.1 85 -24 -24 1029.9 1027.4
12 21.05 СЗ 5 н/о н/о -10.9 -12.8 86 -19 -19 1029.8 1027.3 -16.5 -4.4 8
15 21.05 н/о н/о -8.2 -11.0 80 1030.0 1027.5 0.2

 

Местоположение метеостанции Кеймбридж-Бей (Нунавут, Канада): широта 69.10 долгота -105.10 высота над уровнем моря 19 м.

В архиве по умолчанию представлена погода в Кеймбридж-Бее за последнюю неделю. Архивные данные за месяц целиком и за предыдущие месяцы, начиная с января 2011 года, Вы можете получить, выбрав интересующий диапазон дат из раскрывающегося списка и нажав кнопку "Ввод!".


*Определитесь, кто Вы:
робот инопланетянин человек

Внимание! Время в таблицах - всемирное. Для получения местного времени необходимо прибавить поправку, которая равна -7 ч.

Смотрите также архив погоды в соседних городах и на ближайших метеорологических станциях:

Погода на Мысе Пил-Вест (Нунавут, Канада) (108 км)
Погода на Острове Хат (Нунавут, Канада) (223 км)
Погода в Джойа Хейвен (Нунавут, Канада) (374 км)
Погода в Куглуктуке (Нунавут, Канада) (432 км)
Погода в Куглуктуке (Северо-Западные территории, Канада) (432 км)
Погода в Люпине (Нунавут, Канада) (452 км)
Погода в Саскатуне (Саскачеван, Канада) (452 км)
Погода в Талойоаке (Нунавут, Канада) (454 км)
Погода на Озере Робертсон (Нунавут, Канада) (460 км)
Погода в Шеперд-Бее (Нунавут, Канада) (466 км)

Пояснения к столбцам:

Ветер - указаны скорость ветра в м/с - средняя за 10 мин, порывы в срок и между сроками (в фигурных скобках) и направление, откуда дует ветер: С - северный, СВ - северо-восточный, В - восточный, ЮВ - юго-восточный, Ю - южный, ЮЗ - юго-западный, З - западный, СЗ - северо-западный.
Видимость - горизонтальная дальность видимости в метрах или километрах. При видимости от 1 до 10 км при отсутствии осадков обычно наблюдается дымка, при ухудшении видимости до 1 км и менее - туман. В сухую погоду видимость может ухудшаться дымом, пылью или мглою.
Явления - указаны атмосферные явления, наблюдавшиеся в срок или в последний час перед сроком; фигурными скобками обозначены явления, наблюдавшиеся между сроками (за 1-3 часа до срока); квадратными скобками обозначены град или гололедные отложения с указанием их диаметра в мм.
Облачность - указаны через наклонную черту общая и нижняя облачность в баллах и высота нижней границы облаков в метрах; квадратными скобками обозначены формы облаков: Ci - перистые, Cs - перисто-слоистые, Cc - перисто-кучевые, Ac - высококучевые, As - высокослоистые, Sc - слоисто-кучевые, Ns - слоисто-дождевые, Cu - кучевые, Cb - кучево-дождевые. Подробнее классификацию облаков см. в Атласе облаков (PDF).
T - Температура воздуха - температура, измеренная на высоте 2 м над землей.
Td - Температура точки росы - температура, при понижении до которой содержащийся в воздухе водяной пар достигнет насыщения.
f - Относительная влажность воздуха - влажноcть воздуха, измеренная на высоте 2 м над землей.
Te - Эффективная температура - температура, которую ощущает одетый по сезону человек в тени. Характеристика душности погоды. При расчете учитывается влияние влажности воздуха и скорости ветра на теплоощущения человека.
Tes - Эффективная температура на солнце - температура, которую ощущает человек, с поправкой на солнечный нагрев. Характеристика знойности погоды. Зависит от высоты солнца над горизонтом, облачности и скорости ветра. Ночью, в пасмурную погоду, а также при ветре 12 м/с и более поправка равна нулю.
P - Атмосферное давление - приведенное к уровню моря атмосферное давление.
Po - Атмосферное давление - измеренное на уровне метеостанции атмосферное давление.
Tmin - Минимальная температура - минимум температуры воздуха на высоте 2 м над землей.
Tmax - Максимальная температура - максимум температуры воздуха на высоте 2 м над землей.
R - Количество осадков - Количество выпавших осадков за период времени, мм. При наведении курсора мыши на число - период времени, за который выпало указанное количество осадков.
R24 - Количество осадков - Количество выпавших осадков за 24 часа, мм.
S - Снежный покров - Высота снежного покрова, см. При наведении курсора мыши на число - состояние снежного покрова и степень покрытия местности в баллах.